Regional Weather Roundup
Issued by NWS Goodland, KS

Home | Current Version | Previous Version | Graphics & Text | Print | Product List | Glossary On
Versions: 1 2 3 4 5 6 7 8 9 10 11 12 13 14 15 16 17 18 19 20 21 22 23 24 25 26 27 28 29 30 31 32 33 34 35 36 37 38 39 40 41 42 43 44 45 46 47 48 49 50
000
ASUS43 KGLD 201208
RWRGLD

GOODLAND FORECAST AREA HOURLY WEATHER ROUNDUP
NATIONAL WEATHER SERVICE GOODLAND KS
500 AM MST TUE FEB 20 2018

...OFFICIAL OBSERVATIONS...

CITY           SKY/WX    TMP DP  RH WIND       PRES   REMARKS
GOODLAND KS    CLOUDY     5  -1  76 NW25G32   29.93R WCI -18
HILL CITY KS   CLOUDY    13   5  70 N20G25    30.01R WCI  -5
IMPERIAL NEB   PTCLDY     3  -4  72 NW18      29.97R WCI -17
MCCOOK NEB     CLOUDY     8   1  73 NW24      30.00R WCI -13
AKRON CO       CLEAR     -5  -8  87 NW14      29.87R WCI -25
BURLINGTON CO  MOCLDY     4  -1  80 NW15      29.91R WCI -14
LIMON CO       MOCLDY    -3  -6  87 NW16      29.82R WCI -24
$$

...UNOFFICIAL OBSERVATIONS...

CITY           SKY/WX    TMP DP  RH WIND       PRES   REMARKS
COLBY KS       CLOUDY     9   3  78 NW21G26   29.97R WCI -11
LENORA KS        N/A      4  32 100 N8          N/A
NORTON KS      PTCLDY     9   0  66 N14G20    29.99  WCI  -8
SHARON SPRINGS   N/A      9   4  80 N18         N/A  WCI  -9
TRIBUNE KS     CLOUDY    10   5  79 N18       29.97R WCI  -8
TRENTON NEB      N/A      4  32 100 N8          N/A
KIT CARSON CO    N/A      2  -3  77 MISG        N/A
$$




USA.gov is the U.S. government's official web portal to all federal, state and local government web resources and services.